• în Republica Moldova
  • Lista ţărilor
  • Pe 7 zile
  • Temperatura apei
  • Hartă satelitară
  • Meteo pe hartă
  • Widget-uri
  • user-avatar
    Intrare

    Meteo pe oră la Wiktoria

    Astăzi, 13 Decembrie, Joi

    Timp Temperatura Precipitaţii Vânt Presiune Umiditate
    00:00 +24°C° 0.1 mm 3 m/s 739 mmHg 57%
    01:00 +22°C° 0.1 mm 3 m/s 739 mmHg 63%
    02:00 +22°C° 0.2 mm 3 m/s 738 mmHg 70%
    03:00 +21°C° 0.2 mm 3 m/s 737 mmHg 77%
    04:00 +19°C° 0 mm 2 m/s 737 mmHg 84%
    05:00 +21°C° 0.2 mm 1 m/s 737 mmHg 81%
    06:00 +22°C° 0.2 mm 1 m/s 737 mmHg 78%
    07:00 +23°C° 0.2 mm 1 m/s 737 mmHg 74%
    08:00 +25°C° 0 mm 2 m/s 737 mmHg 66%
    09:00 +26°C° 0 mm 2 m/s 736 mmHg 58%
    10:00 +28°C° 0 mm 3 m/s 736 mmHg 50%
    11:00 +28°C° 2.4 mm 3 m/s 736 mmHg 53%
    12:00 +28°C° 2.4 mm 3 m/s 736 mmHg 56%
    13:00 +27°C° 2.4 mm 3 m/s 736 mmHg 59%
    14:00 +27°C° 3.4 mm 4 m/s 735 mmHg 62%
    15:00 +26°C° 3.4 mm 4 m/s 735 mmHg 66%
    16:00 +25°C° 3.4 mm 5 m/s 735 mmHg 69%
    17:00 +23°C° 0.9 mm 4 m/s 735 mmHg 71%
    18:00 +23°C° 0.9 mm 4 m/s 734 mmHg 73%
    19:00 +22°C° 0.9 mm 3 m/s 734 mmHg 75%
    20:00 +21°C° 1.4 mm 3 m/s 735 mmHg 77%
    21:00 +21°C° 1.4 mm 4 m/s 735 mmHg 78%
    22:00 +20°C° 1.4 mm 4 m/s 735 mmHg 80%
    23:00 +19°C° 2.8 mm 4 m/s 735 mmHg 83%

    Mâine, 14 Decembrie, Vineri

    Timp Temperatura Precipitaţii Vânt Presiune Umiditate
    00:00 +18°C° 2.8 mm 4 m/s 735 mmHg 87%
    01:00 +17°C° 2.8 mm 4 m/s 735 mmHg 90%
    02:00 +15°C° 1.9 mm 4 m/s 735 mmHg 89%
    03:00 +15°C° 1.9 mm 4 m/s 736 mmHg 88%
    04:00 +14°C° 1.9 mm 4 m/s 736 mmHg 87%
    05:00 +14°C° 0.9 mm 5 m/s 737 mmHg 85%
    06:00 +14°C° 0.9 mm 5 m/s 738 mmHg 83%
    07:00 +14°C° 0.9 mm 5 m/s 739 mmHg 81%
    08:00 +15°C° 0.2 mm 5 m/s 739 mmHg 75%
    09:00 +16°C° 0.2 mm 5 m/s 740 mmHg 69%
    10:00 +17°C° 0.2 mm 5 m/s 740 mmHg 63%
    11:00 +20°C° 0 mm 5 m/s 740 mmHg 56%
    12:00 +22°C° 0 mm 5 m/s 740 mmHg 49%
    13:00 +25°C° 0 mm 5 m/s 739 mmHg 41%
    14:00 +25°C° 0 mm 5 m/s 739 mmHg 41%
    15:00 +25°C° 0 mm 4 m/s 739 mmHg 41%
    16:00 +26°C° 0 mm 4 m/s 739 mmHg 40%
    17:00 +25°C° 0 mm 3 m/s 739 mmHg 45%
    18:00 +24°C° 0 mm 2 m/s 739 mmHg 50%
    19:00 +23°C° 0 mm 2 m/s 739 mmHg 55%
    20:00 +21°C° 0 mm 2 m/s 740 mmHg 58%
    21:00 +20°C° 0 mm 3 m/s 740 mmHg 60%
    22:00 +19°C° 0 mm 3 m/s 741 mmHg 63%
    23:00 +19°C° 0 mm 3 m/s 741 mmHg 67%

    Poimâine, 15 Decembrie, Sâmbătă

    Timp Temperatura Precipitaţii Vânt Presiune Umiditate
    00:00 +19°C° 0 mm 3 m/s 741 mmHg 70%
    01:00 +18°C° 0 mm 3 m/s 740 mmHg 74%
    02:00 +18°C° 0 mm 2 m/s 740 mmHg 76%
    03:00 +17°C° 0 mm 2 m/s 740 mmHg 79%
    04:00 +17°C° 0 mm 2 m/s 740 mmHg 82%
    05:00 +18°C° 0 mm 2 m/s 741 mmHg 78%
    06:00 +19°C° 0 mm 3 m/s 741 mmHg 73%
    07:00 +20°C° 0 mm 3 m/s 741 mmHg 69%
    08:00 +22°C° 0 mm 3 m/s 742 mmHg 59%
    09:00 +25°C° 0 mm 4 m/s 742 mmHg 49%
    10:00 +26°C° 0 mm 4 m/s 742 mmHg 39%
    11:00 +27°C° 0 mm 5 m/s 742 mmHg 37%
    12:00 +27°C° 0 mm 5 m/s 742 mmHg 34%
    13:00 +27°C° 0 mm 5 m/s 741 mmHg 32%
    14:00 +26°C° 0.1 mm 5 m/s 741 mmHg 37%
    15:00 +25°C° 0.1 mm 4 m/s 741 mmHg 42%
    16:00 +23°C° 0.1 mm 4 m/s 740 mmHg 48%
    17:00 +22°C° 0 mm 4 m/s 740 mmHg 52%
    18:00 +21°C° 0 mm 3 m/s 740 mmHg 57%
    19:00 +20°C° 0 mm 2 m/s 740 mmHg 62%
    20:00 +19°C° 0.3 mm 2 m/s 740 mmHg 66%
    21:00 +18°C° 0.3 mm 2 m/s 741 mmHg 70%
    22:00 +17°C° 0.3 mm 2 m/s 741 mmHg 75%
    23:00 +18°C° 0.9 mm 1 m/s 741 mmHg 78%

    16 Decembrie, Duminică

    Timp Temperatura Precipitaţii Vânt Presiune Umiditate
    00:00 +18°C° 0.9 mm 1 m/s 741 mmHg 81%
    01:00 +16°C° 0.9 mm 1 m/s 741 mmHg 84%
    02:00 +16°C° 0 mm 1 m/s 741 mmHg 85%
    03:00 +15°C° 0 mm 1 m/s 741 mmHg 86%
    04:00 +15°C° 0 mm 2 m/s 741 mmHg 87%
    05:00 +16°C° 0 mm 2 m/s 742 mmHg 83%
    06:00 +17°C° 0 mm 2 m/s 742 mmHg 80%
    07:00 +18°C° 0 mm 2 m/s 742 mmHg 76%
    08:00 +20°C° 0 mm 2 m/s 743 mmHg 68%
    09:00 +23°C° 0 mm 2 m/s 743 mmHg 59%
    10:00 +25°C° 0 mm 3 m/s 743 mmHg 51%
    11:00 +25°C° 0.1 mm 2 m/s 743 mmHg 49%
    12:00 +26°C° 0.1 mm 2 m/s 743 mmHg 46%
    13:00 +27°C° 0.1 mm 2 m/s 742 mmHg 44%
    14:00 +27°C° 0.1 mm 2 m/s 742 mmHg 43%
    15:00 +27°C° 0.1 mm 2 m/s 742 mmHg 42%
    16:00 +28°C° 0.1 mm 2 m/s 742 mmHg 41%
    17:00 +27°C° 0 mm 1 m/s 742 mmHg 45%
    18:00 +26°C° 0 mm 1 m/s 742 mmHg 48%
    19:00 +25°C° 0 mm 1 m/s 743 mmHg 52%
    20:00 +24°C° 0 mm 1 m/s 743 mmHg 53%
    21:00 +23°C° 0 mm 1 m/s 743 mmHg 55%
    22:00 +22°C° 0 mm 1 m/s 744 mmHg 56%
    23:00 +22°C° 0 mm 1 m/s 744 mmHg 58%

    17 Decembrie, Luni

    Timp Temperatura Precipitaţii Vânt Presiune Umiditate
    00:00 +21°C° 0 mm 1 m/s 744 mmHg 59%
    01:00 +21°C° 0 mm 1 m/s 744 mmHg 61%
    02:00 +20°C° 0 mm 1 m/s 744 mmHg 64%
    03:00 +20°C° 0 mm 1 m/s 744 mmHg 67%
    04:00 +19°C° 0 mm 1 m/s 744 mmHg 70%
    05:00 +20°C° 0 mm 1 m/s 744 mmHg 69%
    06:00 +20°C° 0 mm 2 m/s 745 mmHg 68%
    07:00 +21°C° 0 mm 2 m/s 745 mmHg 67%
    08:00 +23°C° 0 mm 2 m/s 746 mmHg 63%
    09:00 +25°C° 0 mm 3 m/s 746 mmHg 59%
    10:00 +26°C° 0 mm 3 m/s 746 mmHg 55%
    11:00 +27°C° 0 mm 3 m/s 746 mmHg 54%
    12:00 +27°C° 0 mm 4 m/s 746 mmHg 53%
    13:00 +28°C° 0 mm 4 m/s 745 mmHg 52%
    14:00 +28°C° 0 mm 4 m/s 745 mmHg 52%
    15:00 +28°C° 0 mm 5 m/s 745 mmHg 51%
    16:00 +28°C° 0 mm 5 m/s 745 mmHg 51%
    17:00 +27°C° 0 mm 5 m/s 746 mmHg 55%
    18:00 +26°C° 0 mm 5 m/s 746 mmHg 59%
    19:00 +23°C° 0 mm 6 m/s 747 mmHg 64%
    20:00 +22°C° 0 mm 5 m/s 747 mmHg 68%
    21:00 +20°C° 0 mm 5 m/s 748 mmHg 73%
    22:00 +19°C° 0 mm 5 m/s 748 mmHg 77%
    23:00 +17°C° 0 mm 5 m/s 748 mmHg 79%

    18 Decembrie, Marţi

    Timp Temperatura Precipitaţii Vânt Presiune Umiditate
    00:00 +18°C° 0 mm 4 m/s 748 mmHg 81%
    01:00 +17°C° 0 mm 4 m/s 748 mmHg 82%
    02:00 +17°C° 0 mm 4 m/s 747 mmHg 83%
    03:00 +15°C° 0 mm 4 m/s 747 mmHg 84%
    04:00 +16°C° 0 mm 3 m/s 747 mmHg 85%
    05:00 +17°C° 0 mm 3 m/s 748 mmHg 80%
    06:00 +18°C° 0 mm 3 m/s 748 mmHg 76%
    07:00 +19°C° 0 mm 3 m/s 748 mmHg 71%
    08:00 +22°C° 0 mm 3 m/s 749 mmHg 63%
    09:00 +26°C° 0 mm 2 m/s 749 mmHg 55%
    10:00 +28°C° 0 mm 2 m/s 749 mmHg 47%
    11:00 +30°C° 0 mm 2 m/s 748 mmHg 42%
    12:00 +32°C° 0 mm 2 m/s 748 mmHg 37%
    13:00 +33°C° 0 mm 1 m/s 747 mmHg 32%
    14:00 +35°C° 0 mm 2 m/s 747 mmHg 30%
    15:00 +35°C° 0 mm 2 m/s 746 mmHg 29%
    16:00 +35°C° 0 mm 2 m/s 746 mmHg 27%
    17:00 +34°C° 0 mm 3 m/s 746 mmHg 33%
    18:00 +31°C° 0 mm 3 m/s 746 mmHg 39%
    19:00 +30°C° 0 mm 3 m/s 747 mmHg 45%
    20:00 +28°C° 0 mm 3 m/s 747 mmHg 52%
    21:00 +27°C° 0 mm 3 m/s 747 mmHg 58%
    22:00 +25°C° 0 mm 3 m/s 748 mmHg 64%
    23:00 +25°C° 0 mm 3 m/s 747 mmHg 66%
    Arată mai mult